Weather History for KBWP - October, 2012

Change the Weather History Date:

Monday, October 1, 2012

  Actual Average (KFFM) Record (KFFM)
Temperature  
Mean Temperature 54 °F -  
Max Temperature 68 °F 64 °F 86 °F (1953)
Min Temperature 41 °F 41 °F 24 °F (1961)
Degree Days  
Heating Degree Days 10    
Growing Degree Days 4 (Base 50)    
Moisture  
Dew Point 31 °F    
Average Humidity 38    
Maximum Humidity 61    
Minimum Humidity 16    
Precipitation  
Precipitation 0.00 in - - ()
Sea Level Pressure  
Sea Level Pressure 30.02 in    
Wind  
Wind Speed 12 mph (NNW)    
Max Wind Speed 24 mph    
Max Gust Speed 31 mph    
Visibility 10 miles    
Events      
Averages and records for this station are not official NWS values.
T = Trace of Precipitation, MM = Missing Value Source: NWS Daily Summary

Daily Weather History Graph

Daily Weather History Graph

Search for Another Location

Airport or City:

Trip Planner

Search our weather history database for the weather conditions in past years. The results will help you decide how hot, cold, wet, or windy it might be!

Date:

Astronomy

Oct. 01, 2012 Rise Set
Actual Time 7:25 AM CDT 7:05 PM CDT
Civil Twilight 6:55 AM CDT 7:35 PM CDT
Nautical Twilight 6:20 AM CDT 8:09 PM CDT
Astronomical Twilight 5:45 AM CDT 8:45 PM CDT
Moon 7:33 PM CDT (10/1) 9:04 AM CDT (10/1)
Length of Visible Light 12h 39m
Length of Day
11h 39m
Full, 98% of the Moon is Illuminated
Oct 1
Full
Oct 8
Last Quarter
Oct 15
New
Oct 21
First Quarter
Oct 29
Full

Hourly Weather History & Observations

Time (CDT) Temp. Dew Point Humidity Pressure Visibility Wind Dir Wind Speed Gust Speed Precip Events Conditions
12:15 AM 64.4 °F 41.0 °F 42% 29.94 in 10.0 mi North 9.2 mph - N/A   Scattered Clouds
12:35 AM 64.4 °F 37.4 °F 37% 29.94 in 10.0 mi North 16.1 mph 21.9 mph N/A   Mostly Cloudy
12:55 AM 62.6 °F 37.4 °F 39% 29.94 in 10.0 mi NNW 17.3 mph 24.2 mph N/A   Mostly Cloudy
1:15 AM 62.6 °F 37.4 °F 39% 29.94 in 10.0 mi NNW 18.4 mph 21.9 mph N/A   Scattered Clouds
1:35 AM 62.6 °F 37.4 °F 39% 29.95 in 10.0 mi North 16.1 mph 23.0 mph N/A   Clear
1:55 AM 60.8 °F 35.6 °F 39% 29.95 in 10.0 mi NNW 15.0 mph 20.7 mph N/A   Clear
2:15 AM 60.8 °F 35.6 °F 39% 29.96 in 10.0 mi North 13.8 mph 19.6 mph N/A   Clear
2:35 AM 59.0 °F 35.6 °F 42% 29.96 in 10.0 mi NNW 12.7 mph - N/A   Clear
2:55 AM 59.0 °F 35.6 °F 42% 29.97 in 10.0 mi NNW 12.7 mph - N/A   Clear
3:15 AM 59.0 °F 35.6 °F 42% 29.97 in 10.0 mi NNW 12.7 mph 19.6 mph N/A   Clear
3:35 AM 57.2 °F 35.6 °F 44% 29.99 in 10.0 mi NNW 12.7 mph 18.4 mph N/A   Clear
3:55 AM 55.4 °F 35.6 °F 47% 29.99 in 10.0 mi NNW 16.1 mph 21.9 mph N/A   Clear
4:15 AM 55.4 °F 35.6 °F 47% 29.99 in 10.0 mi NNW 11.5 mph - N/A   Clear
4:35 AM 53.6 °F 35.6 °F 51% 30.00 in 10.0 mi NNW 12.7 mph 17.3 mph N/A   Clear
4:55 AM 55.4 °F 35.6 °F 47% 30.00 in 10.0 mi North 11.5 mph - N/A   Mostly Cloudy
5:15 AM 53.6 °F 35.6 °F 51% 30.01 in 10.0 mi NNW 9.2 mph - N/A   Scattered Clouds
5:35 AM 51.8 °F 35.6 °F 54% 30.01 in 10.0 mi NNW 9.2 mph - N/A   Clear
5:55 AM 51.8 °F 35.6 °F 54% 30.01 in 10.0 mi NNW 5.8 mph - N/A   Clear
6:15 AM 50.0 °F 35.6 °F 58% 30.01 in 10.0 mi NNW 4.6 mph - N/A   Clear
6:35 AM 51.8 °F 37.4 °F 58% 30.02 in 10.0 mi NW 8.1 mph - N/A   Mostly Cloudy
6:55 AM 51.8 °F 35.6 °F 54% 30.03 in 10.0 mi NNW 8.1 mph - N/A   Scattered Clouds
7:15 AM 53.6 °F 37.4 °F 54% 30.04 in 10.0 mi NNW 9.2 mph - N/A   Mostly Cloudy
7:35 AM 55.4 °F 37.4 °F 51% 30.04 in 10.0 mi NNW 11.5 mph - N/A   Overcast
7:55 AM 55.4 °F 37.4 °F 51% 30.04 in 10.0 mi NW 10.4 mph - N/A   Overcast
8:15 AM 55.4 °F 39.2 °F 54% 30.05 in 10.0 mi NNW 10.4 mph 17.3 mph N/A   Overcast
8:35 AM 55.4 °F 41.0 °F 58% 30.06 in 10.0 mi NNW 11.5 mph - N/A   Overcast
8:55 AM 55.4 °F 41.0 °F 58% 30.06 in 10.0 mi NNW 11.5 mph - N/A   Overcast
9:15 AM 57.2 °F 39.2 °F 51% 30.06 in 10.0 mi North 11.5 mph 17.3 mph N/A   Overcast
9:35 AM 59.0 °F 39.2 °F 48% 30.07 in 10.0 mi NNW 15.0 mph 19.6 mph N/A   Mostly Cloudy
9:55 AM 60.8 °F 39.2 °F 45% 30.08 in 10.0 mi NNW 15.0 mph - N/A   Scattered Clouds
10:15 AM 60.8 °F 37.4 °F 42% 30.08 in 10.0 mi NNW 18.4 mph 27.6 mph N/A   Clear
10:35 AM 60.8 °F 37.4 °F 42% 30.08 in 10.0 mi NNW 15.0 mph 25.3 mph N/A   Clear
10:55 AM 62.6 °F 37.4 °F 39% 30.08 in 10.0 mi NNW 13.8 mph 23.0 mph N/A   Clear
11:15 AM 62.6 °F 35.6 °F 37% 30.08 in 10.0 mi NNW 19.6 mph 24.2 mph N/A   Clear
11:35 AM 64.4 °F 33.8 °F 32% 30.08 in 10.0 mi North 15.0 mph 25.3 mph N/A   Clear
11:55 AM 64.4 °F 32.0 °F 30% 30.08 in 10.0 mi North 19.6 mph 25.3 mph N/A   Clear
12:15 PM 64.4 °F 32.0 °F 30% 30.07 in 10.0 mi North 19.6 mph 28.8 mph N/A   Clear
12:35 PM 64.4 °F 32.0 °F 30% 30.06 in 10.0 mi North 20.7 mph 26.5 mph N/A   Clear
1:15 PM 66.2 °F 32.0 °F 28% 30.06 in 10.0 mi NNW 15.0 mph 26.5 mph N/A   Clear
1:35 PM 68.0 °F 28.4 °F 23% 30.05 in 10.0 mi North 24.2 mph 28.8 mph N/A   Clear
1:55 PM 68.0 °F 28.4 °F 23% 30.04 in 10.0 mi NNW 16.1 mph 25.3 mph N/A   Clear
2:15 PM 68.0 °F 28.4 °F 23% 30.04 in 10.0 mi North 18.4 mph 28.8 mph N/A   Clear
2:35 PM 68.0 °F 28.4 °F 23% 30.04 in 10.0 mi NNW 18.4 mph 24.2 mph N/A   Clear
2:55 PM 68.0 °F 26.6 °F 21% 30.03 in 10.0 mi North 20.7 mph 31.1 mph N/A   Clear
3:15 PM 68.0 °F 26.6 °F 21% 30.03 in 10.0 mi North 21.9 mph 26.5 mph N/A   Clear
3:35 PM 68.0 °F 23.0 °F 18% 30.03 in 10.0 mi North 19.6 mph 25.3 mph N/A   Clear
3:55 PM 68.0 °F 23.0 °F 18% 30.02 in 10.0 mi North 13.8 mph 23.0 mph N/A   Clear
4:15 PM 68.0 °F 23.0 °F 18% 30.02 in 10.0 mi North 16.1 mph 24.2 mph N/A   Clear
4:35 PM 68.0 °F 19.4 °F 16% 30.02 in 10.0 mi North 19.6 mph 25.3 mph N/A   Clear
4:55 PM 68.0 °F 21.2 °F 17% 30.02 in 10.0 mi North 15.0 mph 25.3 mph N/A   Clear
5:15 PM 68.0 °F 21.2 °F 17% 30.02 in 10.0 mi NNW 13.8 mph 18.4 mph N/A   Clear
5:35 PM 66.2 °F 21.2 °F 18% 30.02 in 10.0 mi North 17.3 mph 25.3 mph N/A   Clear
5:55 PM 64.4 °F 23.0 °F 21% 30.02 in 10.0 mi NNW 12.7 mph 19.6 mph N/A   Clear
6:15 PM 64.4 °F 23.0 °F 21% 30.01 in 10.0 mi North 11.5 mph 17.3 mph N/A   Clear
6:35 PM 62.6 °F 23.0 °F 22% 30.01 in 10.0 mi North 8.1 mph - N/A   Clear
6:55 PM 60.8 °F 24.8 °F 25% 30.01 in 10.0 mi North 6.9 mph - N/A   Clear
7:15 PM 60.8 °F 24.8 °F 25% 30.01 in 10.0 mi NNW 4.6 mph - N/A   Clear
7:55 PM 51.8 °F 23.0 °F 33% 30.01 in 10.0 mi NW 4.6 mph - N/A   Clear
8:15 PM 53.6 °F 24.8 °F 33% 30.02 in 10.0 mi North 3.5 mph - N/A   Clear
8:35 PM 51.8 °F 26.6 °F 38% 30.01 in 10.0 mi Calm Calm - N/A   Clear
8:55 PM 53.6 °F 24.8 °F 33% 30.01 in 10.0 mi Calm Calm - N/A   Clear
9:15 PM 51.8 °F 24.8 °F 35% 30.01 in 10.0 mi Calm Calm - N/A   Clear
9:35 PM 48.2 °F 23.0 °F 37% 30.01 in 10.0 mi West 4.6 mph - N/A   Clear
9:55 PM 44.6 °F 19.4 °F 37% 30.01 in 10.0 mi Calm Calm - N/A   Clear
10:15 PM 44.6 °F 28.4 °F 53% 30.01 in 10.0 mi Calm Calm - N/A   Clear
10:35 PM 42.8 °F 24.8 °F 49% 30.01 in 10.0 mi Calm Calm - N/A   Clear
10:55 PM 41.0 °F 23.0 °F 49% 30.00 in 10.0 mi Calm Calm - N/A   Clear
11:15 PM 41.0 °F 24.8 °F 53% 30.00 in 7.0 mi Calm Calm - N/A   Clear
11:35 PM 42.8 °F 30.2 °F 61% 30.00 in 10.0 mi Calm Calm - N/A   Clear
11:55 PM 41.0 °F 23.0 °F 49% 29.99 in 10.0 mi Calm Calm - N/A   Clear